| time (UTC) | temp F | wind direction | speed MPH | gust MPH | rain 1hr in | rain 24hr in | rain mn in | humidity % | barometer mb |
| 20260506024100 | 77 | 157 | 3.0 | 7.0 | 0.00 | 0.00 | 0.00 | 87 | 1007.1 |
| 20260506023601 | 77 | 154 | 3.0 | 7.0 | 0.00 | 0.00 | 0.00 | 87 | 1007.1 |
| 20260506022101 | 77 | 79 | 3.0 | 7.0 | 0.00 | 0.00 | 0.00 | 86 | 1006.9 |
| 20260506021600 | 77 | 175 | 3.0 | 8.0 | 0.00 | 0.00 | 0.00 | 86 | 1006.9 |
| 20260506021101 | 77 | 191 | 3.0 | 8.0 | 0.00 | 0.00 | 0.00 | 86 | 1007.0 |
| 20260506020601 | 78 | 126 | 2.0 | 5.0 | 0.00 | 0.00 | 0.00 | 86 | 1006.8 |
| 20260506020100 | 78 | 112 | 2.0 | 6.0 | 0.00 | 0.00 | 0.00 | 85 | 1006.7 |
| 20260506015601 | 78 | 176 | 3.0 | 6.0 | 0.00 | 0.00 | 0.00 | 85 | 1006.7 |
| 20260506014101 | 79 | 196 | 3.0 | 8.0 | 0.00 | 0.00 | 0.00 | 83 | 1006.6 |
| 20260506013601 | 79 | 190 | 3.0 | 6.0 | 0.00 | 0.00 | 0.00 | 83 | 1006.4 |
| 20260506013059 | 79 | 138 | 3.0 | 6.0 | 0.00 | 0.00 | 0.00 | 82 | 1006.5 |
| 20260506012558 | 79 | 112 | 2.0 | 6.0 | 0.00 | 0.00 | 0.00 | 83 | 1006.4 |
| 20260506012058 | 79 | 132 | 2.0 | 6.0 | 0.00 | 0.00 | 0.00 | 83 | 1006.5 |
| 20260506011556 | 79 | 62 | 2.0 | 6.0 | 0.00 | 0.00 | 0.00 | 83 | 1006.4 |
| 20260506010552 | 79 | 114 | 2.0 | 6.0 | 0.00 | 0.00 | 0.00 | 83 | 1006.1 |
| 20260506010053 | 80 | 120 | 2.0 | 5.0 | 0.00 | 0.00 | 0.00 | 83 | 1006.0 |
| 20260506005553 | 80 | 139 | 2.0 | 4.0 | 0.00 | 0.00 | 0.00 | 82 | 1006.0 |
| 20260506005052 | 80 | 146 | 2.0 | 4.0 | 0.00 | 0.00 | 0.00 | 82 | 1005.9 |
| 20260506004553 | 80 | 128 | 1.0 | 4.0 | 0.00 | 0.00 | 0.00 | 82 | 1005.8 |
| 20260506004053 | 80 | 96 | 2.0 | 6.0 | 0.00 | 0.00 | 0.00 | 82 | 1005.8 |
| 20260506003553 | 81 | 102 | 2.0 | 6.0 | 0.00 | 0.00 | 0.00 | 81 | 1005.7 |
| 20260506003053 | 81 | 92 | 2.0 | 4.0 | 0.00 | 0.00 | 0.00 | 81 | 1005.6 |
| 20260506002553 | 81 | 122 | 2.0 | 4.0 | 0.00 | 0.00 | 0.00 | 80 | 1005.6 |
| 20260506001052 | 82 | 127 | 2.0 | 8.0 | 0.00 | 0.00 | 0.00 | 79 | 1005.4 |
| 20260506000552 | 82 | 181 | 3.0 | 8.0 | 0.00 | 0.00 | 0.00 | 79 | 1005.4 |
| 20260506000051 | 82 | 128 | 3.0 | 8.0 | 0.00 | 0.00 | 0.00 | 78 | 1005.3 |
| 20260505235550 | 82 | 98 | 3.0 | 8.0 | 0.00 | 0.00 | 0.00 | 78 | 1005.2 |
| 20260505235050 | 82 | 99 | 3.0 | 6.0 | 0.00 | 0.00 | 0.00 | 77 | 1005.2 |
| 20260505234548 | 83 | 81 | 2.0 | 6.0 | 0.00 | 0.00 | 0.00 | 77 | 1005.2 |
| 20260505233047 | 83 | 129 | 3.0 | 6.0 | 0.00 | 0.00 | 0.00 | 76 | 1005.2 |
| 20260505232548 | 83 | 117 | 3.0 | 6.0 | 0.00 | 0.00 | 0.00 | 75 | 1005.2 |
| 20260505232047 | 83 | 110 | 3.0 | 8.0 | 0.00 | 0.00 | 0.00 | 75 | 1005.2 |
| 20260505231548 | 84 | 111 | 2.0 | 8.0 | 0.00 | 0.00 | 0.00 | 74 | 1005.1 |
| 20260505231047 | 84 | 167 | 2.0 | 7.0 | 0.00 | 0.00 | 0.00 | 74 | 1005.1 |
| 20260505230547 | 84 | 96 | 2.0 | 5.0 | 0.00 | 0.00 | 0.00 | 73 | 1005.0 |
| 20260505230048 | 84 | 196 | 3.0 | 6.0 | 0.00 | 0.00 | 0.00 | 73 | 1005.0 |
| 20260505225547 | 84 | 87 | 3.0 | 6.0 | 0.00 | 0.00 | 0.00 | 73 | 1005.1 |
| 20260505225047 | 84 | 159 | 3.0 | 7.0 | 0.00 | 0.00 | 0.00 | 72 | 1004.9 |
| 20260505224548 | 84 | 140 | 3.0 | 7.0 | 0.00 | 0.00 | 0.00 | 71 | 1004.9 |
| 20260505224047 | 84 | 113 | 2.0 | 7.0 | 0.00 | 0.00 | 0.00 | 72 | 1004.9 |
| 20260505223548 | 85 | 43 | 2.0 | 7.0 | 0.00 | 0.00 | 0.00 | 71 | 1005.0 |
| 20260505223045 | 85 | 330 | 2.0 | 5.0 | 0.00 | 0.00 | 0.00 | 71 | 1005.0 |
| 20260505222543 | 85 | 87 | 2.0 | 5.0 | 0.00 | 0.00 | 0.00 | 71 | 1005.0 |
| 20260505221544 | 85 | 264 | 2.0 | 6.0 | 0.00 | 0.00 | 0.00 | 70 | 1004.9 |
| 20260505221044 | 84 | 236 | 2.0 | 7.0 | 0.00 | 0.00 | 0.00 | 69 | 1005.1 |
| 20260505220543 | 84 | 172 | 3.0 | 7.0 | 0.00 | 0.00 | 0.00 | 69 | 1005.1 |
| 20260505220044 | 84 | 200 | 2.0 | 7.0 | 0.00 | 0.00 | 0.00 | 70 | 1005.3 |
| 20260505215543 | 84 | 134 | 2.0 | 9.0 | 0.00 | 0.00 | 0.00 | 71 | 1005.2 |
| 20260505215043 | 84 | 136 | 2.0 | 9.0 | 0.00 | 0.00 | 0.00 | 70 | 1005.4 |
| 20260505214544 | 84 | 161 | 2.0 | 6.0 | 0.00 | 0.00 | 0.00 | 71 | 1005.3 |
| 20260505214044 | 84 | 133 | 2.0 | 7.0 | 0.00 | 0.00 | 0.00 | 71 | 1005.3 |
| 20260505213043 | 84 | 169 | 3.0 | 10.0 | 0.00 | 0.00 | 0.00 | 70 | 1005.4 |
| 20260505212544 | 85 | 193 | 3.0 | 7.0 | 0.00 | 0.00 | 0.00 | 70 | 1005.4 |
| 20260505212044 | 85 | 211 | 3.0 | 9.0 | 0.00 | 0.00 | 0.00 | 71 | 1005.4 |
| 20260505211543 | 85 | 200 | 4.0 | 9.0 | 0.00 | 0.00 | 0.00 | 69 | 1005.5 |
| 20260505211044 | 85 | 302 | 3.0 | 8.0 | 0.00 | 0.00 | 0.00 | 70 | 1005.4 |
| 20260505210543 | 85 | 222 | 3.0 | 6.0 | 0.00 | 0.00 | 0.00 | 69 | 1005.5 |
| 20260505210041 | 84 | 55 | 3.0 | 8.0 | 0.00 | 0.00 | 0.00 | 71 | 1005.7 |
| 20260505205537 | 84 | 156 | 3.0 | 8.0 | 0.00 | 0.00 | 0.00 | 72 | 1005.9 |
| 20260505204534 | 83 | 4 | 2.0 | 8.0 | 0.00 | 0.00 | 0.00 | 73 | 1006.0 |
| 20260505204034 | 83 | 185 | 2.0 | 7.0 | 0.00 | 0.00 | 0.00 | 73 | 1006.1 |
| 20260505203534 | 83 | 267 | 3.0 | 8.0 | 0.00 | 0.00 | 0.00 | 74 | 1006.2 |
| 20260505203035 | 83 | 132 | 3.0 | 8.0 | 0.00 | 0.00 | 0.00 | 74 | 1006.3 |
| 20260505202535 | 83 | 248 | 3.0 | 8.0 | 0.00 | 0.00 | 0.00 | 74 | 1006.4 |
| 20260505202034 | 83 | 124 | 3.0 | 8.0 | 0.00 | 0.00 | 0.00 | 75 | 1006.4 |
| 20260505201534 | 83 | 85 | 3.0 | 8.0 | 0.00 | 0.00 | 0.00 | 74 | 1006.6 |
| 20260505201035 | 83 | 153 | 3.0 | 9.0 | 0.00 | 0.00 | 0.00 | 73 | 1006.4 |
| 20260505200535 | 82 | 221 | 4.0 | 9.0 | 0.00 | 0.00 | 0.00 | 74 | 1006.6 |
| 20260505200035 | 82 | 138 | 4.0 | 9.0 | 0.00 | 0.00 | 0.00 | 75 | 1006.7 |
| 20260505195535 | 82 | 97 | 3.0 | 9.0 | 0.00 | 0.00 | 0.00 | 75 | 1006.8 |
| 20260505195035 | 82 | 69 | 3.0 | 11.0 | 0.00 | 0.00 | 0.00 | 76 | 1006.9 |
| 20260505194536 | 82 | 172 | 4.0 | 11.0 | 0.00 | 0.00 | 0.00 | 76 | 1007.0 |
| 20260505194032 | 82 | 129 | 3.0 | 9.0 | 0.00 | 0.00 | 0.00 | 74 | 1007.0 |
| 20260505193530 | 82 | 125 | 2.0 | 8.0 | 0.00 | 0.00 | 0.00 | 77 | 1006.9 |
| 20260505193030 | 81 | 212 | 3.0 | 8.0 | 0.00 | 0.00 | 0.00 | 77 | 1007.1 |
| 20260505192526 | 81 | 138 | 3.0 | 6.0 | 0.00 | 0.00 | 0.00 | 77 | 1007.2 |
| 20260505192026 | 81 | 106 | 3.0 | 8.0 | 0.00 | 0.00 | 0.00 | 78 | 1007.4 |
| 20260505191525 | 80 | 42 | 3.0 | 8.0 | 0.00 | 0.00 | 0.00 | 78 | 1007.4 |
| 20260505191026 | 80 | 156 | 4.0 | 9.0 | 0.00 | 0.00 | 0.00 | 79 | 1007.5 |
| 20260505190526 | 80 | 80 | 3.0 | 9.0 | 0.00 | 0.00 | 0.00 | 79 | 1007.6 |
| 20260505190026 | 80 | 177 | 3.0 | 8.0 | 0.00 | 0.00 | 0.00 | 78 | 1007.7 |
| 20260505185526 | 80 | 80 | 2.0 | 7.0 | 0.00 | 0.00 | 0.00 | 78 | 1007.6 |
| 20260505185027 | 80 | 89 | 3.0 | 8.0 | 0.00 | 0.00 | 0.00 | 80 | 1007.6 |
| 20260505184527 | 80 | 84 | 3.0 | 8.0 | 0.00 | 0.00 | 0.00 | 78 | 1007.7 |
| 20260505184026 | 80 | 115 | 2.0 | 7.0 | 0.00 | 0.00 | 0.00 | 80 | 1007.6 |
| 20260505183527 | 79 | 153 | 2.0 | 7.0 | 0.00 | 0.00 | 0.00 | 80 | 1007.7 |
| 20260505183027 | 79 | 200 | 2.0 | 6.0 | 0.00 | 0.00 | 0.00 | 81 | 1007.9 |
| 20260505181527 | 79 | 0 | 2.0 | 7.0 | 0.00 | 0.00 | 0.00 | 81 | 1008.0 |
| 20260505181028 | 79 | 70 | 3.0 | 9.0 | 0.00 | 0.00 | 0.00 | 80 | 1008.0 |
| 20260505180021 | 78 | 104 | 2.0 | 5.0 | 0.00 | 0.00 | 0.00 | 81 | 1008.2 |
| 20260505175519 | 78 | 227 | 2.0 | 6.0 | 0.00 | 0.00 | 0.00 | 81 | 1008.2 |
| 20260505175018 | 78 | 227 | 2.0 | 6.0 | 0.00 | 0.00 | 0.00 | 82 | 1008.2 |
| 20260505173519 | 77 | 223 | 3.0 | 7.0 | 0.00 | 0.00 | 0.00 | 83 | 1008.3 |
| 20260505173018 | 77 | 263 | 3.0 | 7.0 | 0.00 | 0.00 | 0.00 | 83 | 1008.4 |
| 20260505172518 | 77 | 40 | 2.0 | 5.0 | 0.00 | 0.00 | 0.00 | 84 | 1008.4 |
| 20260505170019 | 77 | 319 | 2.0 | 8.0 | 0.00 | 0.00 | 0.00 | 83 | 1008.7 |
| 20260505165518 | 77 | 278 | 2.0 | 6.0 | 0.00 | 0.00 | 0.00 | 84 | 1008.5 |
| 20260505165019 | 77 | 292 | 2.0 | 5.0 | 0.00 | 0.00 | 0.00 | 84 | 1008.5 |
| 20260505164519 | 76 | 169 | 2.0 | 7.0 | 0.00 | 0.00 | 0.00 | 85 | 1008.5 |
| 20260505163504 | 75 | 113 | 2.0 | 4.0 | 0.00 | 0.00 | 0.00 | 88 | 1008.8 |
| 20260505163004 | 75 | 246 | 2.0 | 4.0 | 0.00 | 0.00 | 0.00 | 87 | 1009.0 |
| 20260505162504 | 75 | 268 | 2.0 | 5.0 | 0.00 | 0.00 | 0.00 | 87 | 1009.0 |
| 20260505162001 | 75 | 0 | 2.0 | 6.0 | 0.00 | 0.00 | 0.00 | 88 | 1009.0 |
| 20260505161456 | 75 | 300 | 2.0 | 6.0 | 0.00 | 0.00 | 0.00 | 88 | 1009.1 |
| 20260505160449 | 74 | 314 | 2.0 | 4.0 | 0.00 | 0.00 | 0.00 | 88 | 1009.0 |
| 20260505152950 | 74 | 187 | 2.0 | 5.0 | 0.00 | 0.00 | 0.00 | 90 | 1009.1 |
| 20260505152450 | 74 | 297 | 1.0 | 2.0 | 0.00 | 0.00 | 0.00 | 90 | 1009.1 |
| 20260505151949 | 74 | 137 | 2.0 | 6.0 | 0.00 | 0.00 | 0.00 | 90 | 1009.1 |
| 20260505151451 | 73 | 328 | 2.0 | 6.0 | 0.00 | 0.00 | 0.00 | 90 | 1009.1 |
| 20260505150949 | 73 | 257 | 2.0 | 4.0 | 0.00 | 0.00 | 0.00 | 90 | 1009.0 |
| 20260505150450 | 73 | 338 | 2.0 | 5.0 | 0.00 | 0.00 | 0.00 | 90 | 1009.0 |
| 20260505140436 | 72 | 241 | 2.0 | 3.0 | 0.00 | 0.00 | 0.00 | 91 | 1008.9 |
| 20260505124851 | 71 | 237 | 2.0 | 5.0 | 0.00 | 0.00 | 0.00 | 92 | 1008.3 |
| 20260505123850 | 71 | 309 | 2.0 | 5.0 | 0.00 | 0.00 | 0.00 | 93 | 1008.3 |
| 20260505123351 | 71 | 122 | 3.0 | 6.0 | 0.00 | 0.00 | 0.00 | 92 | 1008.4 |
| 20260505122851 | 71 | 97 | 2.0 | 6.0 | 0.00 | 0.00 | 0.00 | 92 | 1008.4 |
| 20260505122350 | 71 | 125 | 2.0 | 7.0 | 0.00 | 0.00 | 0.00 | 92 | 1008.4 |
| 20260505121851 | 71 | 128 | 3.0 | 7.0 | 0.00 | 0.00 | 0.00 | 92 | 1008.3 |
| 20260505121341 | 71 | 138 | 2.0 | 6.0 | 0.00 | 0.00 | 0.00 | 92 | 1008.1 |
| 20260505120837 | 71 | 96 | 2.0 | 6.0 | 0.00 | 0.00 | 0.00 | 92 | 1008.1 |
| 20260505120327 | 71 | 171 | 2.0 | 6.0 | 0.00 | 0.00 | 0.00 | 92 | 1008.1 |
| 20260505115321 | 71 | 108 | 2.0 | 4.0 | 0.00 | 0.00 | 0.00 | 92 | 1008.1 |
| 20260505114821 | 71 | 106 | 2.0 | 5.0 | 0.00 | 0.00 | 0.00 | 92 | 1008.2 |
| 20260505114322 | 71 | 98 | 2.0 | 5.0 | 0.00 | 0.00 | 0.00 | 92 | 1008.1 |
| 20260505113822 | 71 | 183 | 2.0 | 6.0 | 0.00 | 0.00 | 0.00 | 92 | 1008.1 |
| 20260505113321 | 71 | 75 | 2.0 | 6.0 | 0.00 | 0.00 | 0.00 | 92 | 1008.0 |
| 20260505111321 | 70 | 79 | 2.0 | 4.0 | 0.00 | 0.00 | 0.00 | 92 | 1008.0 |
| 20260505110822 | 70 | 225 | 2.0 | 5.0 | 0.00 | 0.00 | 0.00 | 92 | 1008.0 |
| 20260505110322 | 70 | 89 | 2.0 | 5.0 | 0.00 | 0.00 | 0.00 | 92 | 1008.1 |
| 20260505101802 | 70 | 208 | 2.0 | 6.0 | 0.00 | 0.00 | 0.00 | 91 | 1008.3 |
| 20260505101302 | 70 | 29 | 2.0 | 10.0 | 0.00 | 0.00 | 0.00 | 91 | 1008.2 |
| 20260505100802 | 70 | 44 | 2.0 | 10.0 | 0.00 | 0.00 | 0.00 | 91 | 1008.3 |
| 20260505093800 | 70 | 136 | 2.0 | 8.0 | 0.00 | 0.00 | 0.00 | 91 | 1008.3 |
| 20260505093259 | 70 | 271 | 3.0 | 8.0 | 0.00 | 0.00 | 0.00 | 91 | 1008.4 |
| 20260505092804 | 70 | 183 | 3.0 | 8.0 | 0.00 | 0.00 | 0.00 | 91 | 1008.4 |
| 20260505092300 | 70 | 49 | 2.0 | 6.0 | 0.00 | 0.00 | 0.00 | 91 | 1008.3 |
| 20260505091759 | 70 | 58 | 2.0 | 6.0 | 0.00 | 0.00 | 0.00 | 91 | 1008.7 |
| 20260505091259 | 70 | 292 | 2.0 | 6.0 | 0.00 | 0.00 | 0.00 | 91 | 1008.4 |
| 20260505090800 | 70 | 100 | 2.0 | 6.0 | 0.00 | 0.00 | 0.00 | 91 | 1008.4 |
| 20260505090300 | 70 | 101 | 3.0 | 6.0 | 0.00 | 0.00 | 0.00 | 91 | 1008.4 |
| 20260505085800 | 70 | 275 | 3.0 | 7.0 | 0.00 | 0.00 | 0.00 | 91 | 1008.3 |
| 20260505085259 | 70 | 217 | 2.0 | 7.0 | 0.00 | 0.00 | 0.00 | 91 | 1008.5 |
| 20260505084759 | 70 | 89 | 2.0 | 6.0 | 0.00 | 0.00 | 0.00 | 91 | 1008.7 |
| 20260505084300 | 70 | 182 | 3.0 | 6.0 | 0.00 | 0.00 | 0.00 | 91 | 1008.7 |
| 20260505083801 | 70 | 140 | 3.0 | 9.0 | 0.00 | 0.00 | 0.00 | 91 | 1008.8 |
| 20260505083259 | 70 | 130 | 3.0 | 9.0 | 0.00 | 0.00 | 0.00 | 91 | 1008.7 |
| 20260505082800 | 70 | 139 | 3.0 | 8.0 | 0.00 | 0.00 | 0.00 | 90 | 1008.8 |
| 20260505082300 | 70 | 236 | 3.0 | 8.0 | 0.00 | 0.00 | 0.00 | 90 | 1008.9 |
| 20260505081800 | 70 | 351 | 3.0 | 8.0 | 0.00 | 0.00 | 0.00 | 90 | 1009.0 |
| 20260505081257 | 70 | 34 | 3.0 | 7.0 | 0.00 | 0.00 | 0.00 | 90 | 1009.1 |
| 20260505080758 | 70 | 353 | 2.0 | 7.0 | 0.00 | 0.00 | 0.00 | 90 | 1009.1 |
| 20260505080257 | 70 | 256 | 3.0 | 9.0 | 0.00 | 0.00 | 0.00 | 90 | 1009.1 |
| 20260505075257 | 70 | 213 | 3.0 | 7.0 | 0.00 | 0.00 | 0.00 | 90 | 1009.2 |
| 20260505074758 | 70 | 42 | 3.0 | 6.0 | 0.00 | 0.00 | 0.00 | 90 | 1009.2 |
| 20260505073757 | 70 | 220 | 3.0 | 9.0 | 0.00 | 0.00 | 0.00 | 90 | 1009.3 |
| 20260505073257 | 70 | 237 | 2.0 | 9.0 | 0.00 | 0.00 | 0.00 | 90 | 1009.3 |
| 20260505072757 | 71 | 38 | 3.0 | 9.0 | 0.00 | 0.00 | 0.00 | 90 | 1009.2 |
| 20260505072257 | 71 | 88 | 3.0 | 9.0 | 0.00 | 0.00 | 0.00 | 90 | 1009.3 |
| 20260505071757 | 71 | 198 | 2.0 | 7.0 | 0.00 | 0.00 | 0.00 | 89 | 1009.3 |
| 20260505071257 | 70 | 199 | 2.0 | 7.0 | 0.00 | 0.00 | 0.00 | 89 | 1009.3 |
| 20260505070757 | 70 | 164 | 3.0 | 6.0 | 0.00 | 0.00 | 0.00 | 90 | 1009.4 |
| 20260505070257 | 70 | 149 | 2.0 | 6.0 | 0.00 | 0.00 | 0.00 | 90 | 1009.6 |
| 20260505065758 | 70 | 156 | 3.0 | 8.0 | 0.00 | 0.00 | 0.00 | 89 | 1009.6 |
| 20260505064258 | 70 | 94 | 2.0 | 9.0 | 0.00 | 0.00 | 0.00 | 89 | 1009.9 |
| 20260505063755 | 70 | 137 | 3.0 | 7.0 | 0.00 | 0.00 | 0.00 | 89 | 1009.8 |
| 20260505063256 | 71 | 103 | 3.0 | 9.0 | 0.00 | 0.00 | 0.00 | 89 | 1009.9 |
| 20260505062755 | 71 | 132 | 3.0 | 9.0 | 0.00 | 0.00 | 0.00 | 89 | 1009.8 |
| 20260505062255 | 71 | 209 | 3.0 | 9.0 | 0.00 | 0.00 | 0.00 | 89 | 1009.7 |
| 20260505061755 | 71 | 133 | 2.0 | 9.0 | 0.00 | 0.00 | 0.00 | 89 | 1009.8 |
| 20260505061257 | 71 | 82 | 3.0 | 9.0 | 0.00 | 0.00 | 0.00 | 88 | 1009.8 |
| 20260505060753 | 71 | 83 | 3.0 | 9.0 | 0.00 | 0.00 | 0.00 | 88 | 1009.8 |
| 20260505060253 | 71 | 95 | 3.0 | 8.0 | 0.00 | 0.00 | 0.00 | 88 | 1009.9 |
| 20260505055754 | 71 | 150 | 3.0 | 9.0 | 0.00 | 0.00 | 0.00 | 88 | 1009.8 |
| 20260505054753 | 70 | 118 | 4.0 | 10.0 | 0.00 | 0.00 | 0.00 | 88 | 1009.7 |
| 20260505054253 | 70 | 151 | 3.0 | 9.0 | 0.00 | 0.00 | 0.00 | 88 | 1009.8 |
| 20260505053753 | 70 | 186 | 3.0 | 9.0 | 0.00 | 0.00 | 0.00 | 88 | 1009.8 |
| 20260505053254 | 70 | 340 | 3.0 | 9.0 | 0.00 | 0.00 | 0.00 | 88 | 1009.8 |
| 20260505052253 | 70 | 54 | 3.0 | 10.0 | 0.00 | 0.00 | 0.00 | 88 | 1009.9 |
| 20260505051753 | 70 | 165 | 3.0 | 10.0 | 0.00 | 0.00 | 0.00 | 88 | 1009.9 |
| 20260505051255 | 70 | 123 | 4.0 | 10.0 | 0.00 | 0.00 | 0.00 | 88 | 1010.0 |
| 20260505050753 | 70 | 211 | 4.0 | 7.0 | 0.00 | 0.00 | 0.00 | 88 | 1010.0 |
| 20260505050253 | 70 | 102 | 3.0 | 8.0 | 0.00 | 0.00 | 0.00 | 88 | 1009.9 |
| 20260505041253 | 71 | 301 | 3.0 | 8.0 | 0.00 | 0.00 | 0.00 | 86 | 1010.2 |
| 20260505040754 | 71 | 131 | 3.0 | 8.0 | 0.00 | 0.00 | 0.00 | 85 | 1010.2 |
| 20260505040254 | 71 | 195 | 4.0 | 9.0 | 0.00 | 0.00 | 0.00 | 85 | 1010.1 |
| 20260505035754 | 71 | 116 | 3.0 | 9.0 | 0.00 | 0.00 | 0.00 | 85 | 1010.1 |
| 20260505035252 | 71 | 146 | 2.0 | 6.0 | 0.00 | 0.00 | 0.00 | 85 | 1010.1 |
| 20260505034748 | 71 | 107 | 2.0 | 7.0 | 0.00 | 0.00 | 0.00 | 85 | 1009.9 |
| 20260505034248 | 71 | 200 | 3.0 | 7.0 | 0.00 | 0.00 | 0.00 | 85 | 1010.0 |
| 20260505033746 | 72 | 221 | 3.0 | 8.0 | 0.00 | 0.00 | 0.00 | 84 | 1010.0 |
| 20260505033245 | 72 | 127 | 3.0 | 8.0 | 0.00 | 0.00 | 0.00 | 84 | 1009.9 |
| 20260505032745 | 72 | 216 | 3.0 | 8.0 | 0.00 | 0.00 | 0.00 | 84 | 1010.0 |
| 20260505032245 | 72 | 122 | 3.0 | 8.0 | 0.00 | 0.00 | 0.00 | 84 | 1010.1 |
| 20260505031746 | 72 | 117 | 3.0 | 6.0 | 0.00 | 0.00 | 0.00 | 83 | 1010.1 |
| 20260505031246 | 72 | 166 | 3.0 | 7.0 | 0.00 | 0.00 | 0.00 | 83 | 1010.1 |
| 20260505030746 | 72 | 179 | 3.0 | 7.0 | 0.00 | 0.00 | 0.00 | 83 | 1010.0 |
| 20260505030245 | 73 | 189 | 3.0 | 7.0 | 0.00 | 0.00 | 0.00 | 82 | 1010.0 |
| 20260505025745 | 73 | 156 | 2.0 | 6.0 | 0.00 | 0.00 | 0.00 | 82 | 1009.9 |
| 20260505025246 | 73 | 310 | 2.0 | 6.0 | 0.00 | 0.00 | 0.00 | 82 | 1009.8 |
| 20260505024745 | 73 | 149 | 2.0 | 6.0 | 0.00 | 0.00 | 0.00 | 81 | 1009.6 |
| 20260505024246 | 73 | 142 | 3.0 | 6.0 | 0.00 | 0.00 | 0.00 | 81 | 1009.5 |